Location: Unspecified
(43.8044°N, 11.0278°E)
Time: 05:16:46
(UTC+01:00)

Okean 3 - Visible Passes

Search period start: 04 March 2015 00:00
Search period end: 14 March 2015 00:00
Orbit: 581 x 607 km, 82.5° (Epoch: 03 March)

Date Brightness Start Highest point End Pass type
(mag) Time Alt. Az. Time Alt. Az. Time Alt. Az.
04 Mar 5.6 04:06:07 21° N 04:06:07 21° N 04:07:33 10° N visible
05 Mar 5.6 04:15:48 18° N 04:15:48 18° N 04:16:59 10° N visible
06 Mar 5.7 04:25:25 15° NNW 04:25:25 15° NNW 04:26:19 10° N visible
07 Mar 5.9 04:35:01 12° NNW 04:35:01 12° NNW 04:35:30 10° NNW visible
09 Mar 6.5 03:17:28 10° NNE 03:17:28 10° NNE 03:17:32 10° NNE visible
10 Mar 6.4 03:26:58 10° N 03:26:58 10° N 03:27:02 10° N visible
